Skip Page Navigation
NASA JPL Caltech
NASA Logo - Jet Propulsion Laboratory + View the NASA Portal
+ Center for Near-Earth Object Studies
JPL Home Earth Solar System Stars & Galaxies Technology
JPL Solar System Dynamics
BODIES ORBITS EPHEMERIDES TOOLS PHYSICAL DATA DISCOVERY FAQ SITE MAP
JPL Small-Body Database Browser
Search: [ help ]  
2720 Pyotr Pervyj (1972 RV3)
Classification: Main-belt Asteroid          SPK-ID: 2002720
Ephemeris | Orbit Diagram | Orbital Elements | Mission Design | Physical Parameters | Discovery Circumstances ]

[ hide orbit diagram ]

For accurate long-term ephemerides, please instead use our Horizons system.This orbit viewer was implemented using two-body methods, and hence should not be used for determining accurate long-term trajectories (over several years or decades) or planetary encounter circumstances.


[ revert to old Java-based viewer ]

Orbital Elements at Epoch 2459000.5 (2020-May-31.0) TDB
Reference: JPL 33 (heliocentric ecliptic J2000)
 Element Value Uncertainty (1-sigma)   Units 
e .2034755994186393 2.9788e-08  
a 2.330495583115599 6.9314e-09 au
q 1.856296597398662 6.9415e-08 au
i 3.289524798132233 3.703e-06 deg
node 113.4142674406339 5.4477e-05 deg
peri 236.5502660170268 5.5163e-05 deg
M 153.0061195750229 9.6652e-06 deg
tp 2458448.197316442998
(2018-Nov-25.69731644)
3.3987e-05 TDB
period 1299.483750275948
3.56
5.7975e-06
1.587e-08
d
yr
n .2770330909667423 1.2359e-09 deg/d
Q 2.804694568832537 8.3418e-09 au
  Orbit Determination Parameters
   # obs. used (total)      2238  
   data-arc span      24056 days (65.86 yr)  
   first obs. used      1954-07-29  
   last obs. used      2020-06-08  
   planetary ephem.      DE431  
   SB-pert. ephem.      SB431-N16  
   condition code      0  
   norm. resid. RMS      .49942  
   source      ORB  
   producer      Otto Matic  
   solution date      2020-Nov-13 04:06:41  

Additional Information
 Earth MOID = .852521 au 
 Jupiter MOID = 2.62271 au 
 T_jup = 3.541 
[ show covariance matrix ]

Ephemeris | Orbit Diagram | Orbital Elements | Mission Design | Physical Parameters | Discovery Circumstances ]

Physical Parameter Table
Parameter Symbol Value Units Sigma Reference Notes
absolute magnitude H 14.1   n/a MPO347541  
diameter diameter 8.933 km 0.107 urn:nasa:pds:neowise_diameters_albedos::2.0[mainbelt] (http://adsabs.harvard.edu/abs/2011ApJ...741...68M)  
geometric albedo albedo 0.061   0.006 urn:nasa:pds:neowise_diameters_albedos::2.0[mainbelt] (http://adsabs.harvard.edu/abs/2011ApJ...741...68M)  
SMASSII spectral type spec_B C   n/a EAR-A-5-DDR-TAXONOMY-V4.0 based on a high-resolution spectrum by Xu et al. (1995) or Bus and Binzel (2002)

2720 Pyotr Pervyj (1972 RV3)          Discovered 1972-Sep-06 by Zhuravleva, L. at Nauchnyj
Reference: DISCOVERY.DBLast Updated: 2003-08-29

Alternate Designations
 1972 RV3 = 1965 UN1 
Ephemeris | Orbit Diagram | Orbital Elements | Mission Design | Physical Parameters | Discovery Circumstances ]
ABOUT SSD CREDITS/AWARDS PRIVACY/COPYRIGHT GLOSSARY LINKS
FirstGov 2020-Nov-26 16:40 UT
(server date/time)  
NASA Home Page
Site Manager:   Ryan S. Park
Webmaster  Alan B. Chamberlin